Terug naar catalogus

VIASAT 1

ActiefCommunicatieGEO
NORAD 37843·PAYLOAD·🇺🇸 United States

Gelanceerd Oct 19, 2011 vanaf Baikonur Cosmodrome

Loading…

TLE

VersSource: Space-Track

Epoch: Sep 14, 2026, 21:48 UTC

1 37843U 11059A   26257.90874069 -.00000031  00000-0  00000-0 0  9991
2 37843   0.0180 198.3729 0002345 325.5429  42.0106  1.00271237 48221

Volg VIASAT 1 in realtime met AllMySat

Download on the App Store